This demonstration page uses our WeatherBlox Daily Observations layout. Learn more.

Left ArrowRight Arrow

Hourly Observations for May 24, 2016

Temp ( °F °C ) Dew Point ( °F °C ) Humidity (%) Winds ( mph kmh ) Pressure ( in mb ) Visibility ( mi km ) Precip ( " mm )
12:19 am 00:19 Partly Cloudy 62 16.7 60 15.6 93 93 S 6 9 29.91 1013 9 14 0.00 0.00
12:52 am 00:52 Clear with Mist and Fog 61 16.1 59 15 93 93 S 5 7 29.92 1013 5 8 0.00 0.00
1:52 am 01:52 Mostly Cloudy 63 17.2 60 15.6 90 90 SE 6 9 29.91 1013 9 14 0.00 0.00
2:52 am 02:52 Mostly Cloudy 64 17.8 60 15.6 87 87 SSE 8 13 29.89 1012 10 16 0.00 0.00
3:52 am 03:52 Partly Cloudy 63 17.2 60 15.6 90 90 SE 9 15 29.89 1012 10 16 0.00 0.00
4:52 am 04:52 Mostly Cloudy 64 17.8 61 16.1 90 90 SSE 9 15 29.91 1013 10 16 0.00 0.00
5:52 am 05:52 Cloudy 64 17.8 61 16.1 90 90 SSE 10 17 29.92 1013 10 16 0.00 0.00
6:52 am 06:52 Sunny 64 17.8 61 16.1 90 90 SSE 12 19 29.93 1014 10 16 0.00 0.00
7:52 am 07:52 Mostly Cloudy 67 19.4 62 16.7 84 84 SSE 10 17 29.94 1014 10 16 0.00 0.00
8:52 am 08:52 Cloudy 69 20.6 63 17.2 81 81 SSE 13 20 29.95 1014 10 16 0.00 0.00
9:52 am 09:52 Cloudy 72 22.2 65 18.3 79 79 S 10 17 29.95 1014 10 16 0.00 0.00
10:52 am 10:52 Sunny 75 23.9 66 18.9 74 74 S 14 22 29.93 1013 10 16 0.00 0.00
11:52 am 11:52 Partly Cloudy 73 22.8 65 18.3 76 76 SSW 8 13 29.97 1015 10 16 0.00 0.00
12:02 pm 12:02 Mostly Cloudy with Nearby Thunderstorms 73 22.8 65 18.3 76 76 WSW 8 13 30.00 1016 10 16 0.00 0.00
12:19 pm 12:19 Cloudy with Thunderstorms 67 19.4 60 15.6 79 79 N 20 31 30.03 1017 10 16 0.00 0.00
12:29 pm 12:29 Windy with Storms Likely 65 18.3 60 15.6 84 84 N 20 31 30.03 1017 10 16 0.00 0.03
12:52 pm 12:52 Cloudy with Thunderstorms 64 17.8 61 16.1 90 90 N 14 22 30.02 1017 10 16 0.00 0.03
1:08 pm 13:08 Cloudy with Strong Thunderstorms 64 18 61 16 88 88 N 17 28 30.03 1017 3 4 0.00 0.00
1:18 pm 13:18 Cloudy with Thunderstorms 64 18 61 16 88 88 N 15 24 30.03 1017 10 16 0.00 0.00
1:25 pm 13:25 Cloudy with Nearby Thunderstorms 64 17.8 61 16.1 90 90 N 10 17 30.03 1017 10 16 0.12 3.05
1:42 pm 13:42 Partly Cloudy 64 18 61 16 88 88 ENE 12 19 30.00 1016 10 16 0.00 0.00
1:52 pm 13:52 Mostly Cloudy 66 18.9 61 16.1 84 84 NE 10 17 30.00 1016 10 16 0.12 3.05
2:06 pm 14:06 Partly Cloudy with Nearby Thunderstorms 66 18.9 61 16.1 84 84 ENE 6 9 29.97 1015 10 16 0.00 0.00
2:37 pm 14:37 Mostly Sunny 66 18.9 61 16.1 84 84 E 8 13 29.97 1015 10 16 0.00 0.00
2:52 pm 14:52 Mostly Sunny 66 18.9 61 16.1 84 84 E 8 13 29.94 1014 10 16 0.00 0.00
3:52 pm 15:52 Sunny 68 20 63 17.2 84 84 SSE 10 17 29.94 1014 10 16 0.00 0.00
4:52 pm 16:52 Sunny 69 20.6 61 16.1 76 76 SE 18 30 29.94 1014 10 16 0.00 0.00
5:52 pm 17:52 Sunny 67 19.4 60 15.6 79 79 SSE 17 28 29.96 1014 10 16 0.00 0.00
6:52 pm 18:52 Sunny 67 19.4 61 16.1 81 81 SSE 15 24 29.97 1015 10 16 0.00 0.00
7:52 pm 19:52 Sunny 67 19.4 60 15.6 79 79 SSE 16 26 29.95 1014 10 16 0.00 0.00
8:52 pm 20:52 Clear 64 17.8 60 15.6 87 87 SSE 15 24 29.95 1014 10 16 0.00 0.00
9:24 pm 21:24 Mostly Clear 63 17 61 16 94 94 SSE 17 28 29.94 1014 10 16 0.00 0.00
9:52 pm 21:52 Mostly Clear 64 17.8 60 15.6 87 87 SSE 16 26 29.96 1014 10 16 0.00 0.00
10:32 pm 22:32 Mostly Cloudy 64 18 61 16 88 88 SSE 17 28 29.94 1014 10 16 0.00 0.00
10:52 pm 22:52 Cloudy 65 18.3 61 16.1 87 87 SSE 16 26 29.95 1014 10 16 0.00 0.00
11:24 pm 23:24 Partly Cloudy 64 18 61 16 88 88 SSE 22 35 29.91 1013 10 16 0.00 0.00
11:52 pm 23:52 Clear 66 18.9 62 16.7 87 87 SE 20 31 29.89 1012 10 16 0.00 0.00

Powered by AerisWeather